Weather History for KCCY - January, 2012

Change the Weather History Date:

Sunday, January 29, 2012

  Actual Average (KMCW) Record (KMCW)
Temperature  
Mean Temperature 24 °F 16 °F  
Max Temperature 30 °F 25 °F 50 °F (1931)
Min Temperature 17 °F 7 °F -28 °F (1966)
Degree Days  
Heating Degree Days 42 49  
Month to date heating degree days 1421  
Since 1 July heating degree days 4510  
Cooling Degree Days 0 0  
Month to date cooling degree days 0  
Year to date cooling degree days 0  
Moisture  
Dew Point 16 °F    
Average Humidity 76    
Maximum Humidity 93    
Minimum Humidity 63    
Precipitation  
Precipitation 0.00 in 0.03 in 0.62 in (1909)
Month to date precipitation 0.76  
Year to date precipitation 0.76  
Snow  
Snow 0.00 in 0.40 in 7.00 in (1936)
Month to date snowfall 10.1  
Since 1 July snowfall 24.1  
Snow Depth -    
Sea Level Pressure  
Sea Level Pressure 30.10 in    
Wind  
Wind Speed 13 mph (WNW)    
Max Wind Speed 22 mph    
Max Gust Speed 29 mph    
Visibility 10 miles    
Events Snow    
T = Trace of Precipitation, MM = Missing Value Source: NWS Daily Summary

Daily Weather History Graph

Daily Weather History Graph

Search for Another Location

Airport or City:

Trip Planner

Search our weather history database for the weather conditions in past years. The results will help you decide how hot, cold, wet, or windy it might be!

Date:

Astronomy

Jan. 29, 2012 Rise Set
Actual Time 7:29 AM CST 5:18 PM CST
Civil Twilight 6:58 AM CST 5:48 PM CST
Nautical Twilight 6:24 AM CST 6:23 PM CST
Astronomical Twilight 5:51 AM CST 6:56 PM CST
Moon 10:08 AM CST (1/29) No Moon Set
Length of Visible Light 10h 50m
Length of Day
9h 49m
Waxing Crescent, 37% of the Moon is Illuminated
Jan 29
Waxing Crescent
Jan 30
First Quarter
Feb 7
Full
Feb 14
Last Quarter
Feb 21
New

Hourly Weather History & Observations

Time (CST) Temp. Windchill Dew Point Humidity Pressure Visibility Wind Dir Wind Speed Gust Speed Precip Events Conditions
12:15 AM 28.4 °F 18.0 °F 26.6 °F 93% 29.94 in 1.8 mi West 12.7 mph - N/A Snow Light Snow
12:35 AM 28.4 °F 17.5 °F 26.6 °F 93% 29.94 in 7.0 mi West 13.8 mph - N/A Snow Light Snow
12:55 AM 28.4 °F 18.5 °F 26.6 °F 93% 29.93 in 5.0 mi West 11.5 mph - N/A Snow Light Snow
1:15 AM 28.4 °F 18.0 °F 26.6 °F 93% 29.93 in 10.0 mi West 12.7 mph - N/A   Scattered Clouds
1:35 AM 28.4 °F 16.6 °F 24.8 °F 86% 29.93 in 10.0 mi West 16.1 mph - N/A   Scattered Clouds
1:55 AM 30.2 °F 20.2 °F 26.6 °F 86% 29.94 in 10.0 mi West 12.7 mph - N/A   Overcast
2:15 AM 30.2 °F 18.9 °F 24.8 °F 80% 29.94 in 10.0 mi West 16.1 mph 21.9 mph N/A   Overcast
2:35 AM 28.4 °F 15.4 °F 24.8 °F 86% 29.95 in 7.0 mi WNW 19.6 mph 25.3 mph N/A   Overcast
2:55 AM 28.4 °F 15.1 °F 24.8 °F 86% 29.96 in 5.0 mi WNW 20.7 mph 27.6 mph N/A   Overcast
3:15 AM 28.4 °F 15.8 °F 23.0 °F 80% 29.97 in 7.0 mi WNW 18.4 mph 28.8 mph N/A   Overcast
3:35 AM 26.6 °F 13.1 °F 21.2 °F 80% 29.98 in 10.0 mi WNW 19.6 mph 23.0 mph N/A   Scattered Clouds
3:55 AM 26.6 °F 13.8 °F 21.2 °F 80% 29.99 in 10.0 mi WNW 17.3 mph - N/A   Mostly Cloudy
4:15 AM 26.6 °F 12.4 °F 21.2 °F 80% 30.00 in 10.0 mi NW 21.9 mph 27.6 mph N/A   Overcast
4:35 AM 26.6 °F 14.7 °F 21.2 °F 80% 30.01 in 10.0 mi NNW 15.0 mph - N/A   Overcast
4:55 AM 24.8 °F 11.1 °F 21.2 °F 86% 30.02 in 10.0 mi NNW 18.4 mph 21.9 mph N/A Snow Light Snow
5:15 AM 24.8 °F 11.1 °F 19.4 °F 80% 30.03 in 10.0 mi NNW 18.4 mph - N/A   Overcast
5:55 AM 24.8 °F 10.7 °F 19.4 °F 80% 30.05 in 10.0 mi NNW 19.6 mph 23.0 mph N/A Snow Light Snow
6:15 AM 23.0 °F 10.1 °F 19.4 °F 86% 30.06 in 10.0 mi NW 15.0 mph - N/A   Overcast
6:35 AM 23.0 °F 11.1 °F 17.6 °F 80% 30.08 in 10.0 mi NW 12.7 mph - N/A   Overcast
6:55 AM 23.0 °F 10.1 °F 17.6 °F 80% 30.09 in 10.0 mi NW 15.0 mph 21.9 mph N/A   Overcast
7:15 AM 23.0 °F 9.2 °F 17.6 °F 80% 30.10 in 10.0 mi NW 17.3 mph 23.0 mph N/A   Overcast
7:35 AM 21.2 °F 8.9 °F 15.8 °F 80% 30.11 in 10.0 mi NW 12.7 mph - N/A   Mostly Cloudy
7:55 AM 21.2 °F 10.1 °F 15.8 °F 80% 30.12 in 10.0 mi NW 10.4 mph - N/A   Scattered Clouds
8:15 AM 19.4 °F 8.6 °F 14.0 °F 80% 30.12 in 10.0 mi NW 9.2 mph - N/A   Clear
8:35 AM 19.4 °F 7.2 °F 14.0 °F 80% 30.14 in 10.0 mi NW 11.5 mph - N/A   Mostly Cloudy
8:55 AM 21.2 °F 8.9 °F 14.0 °F 74% 30.14 in 10.0 mi NW 12.7 mph - N/A   Overcast
9:15 AM 21.2 °F 9.5 °F 12.2 °F 68% 30.14 in 10.0 mi NW 11.5 mph - N/A   Scattered Clouds
9:35 AM 21.2 °F 8.3 °F 12.2 °F 68% 30.15 in 10.0 mi NW 13.8 mph - N/A   Clear
9:55 AM 21.2 °F 7.3 °F 12.2 °F 68% 30.15 in 10.0 mi NNW 16.1 mph - N/A   Clear
10:15 AM 21.2 °F 8.3 °F 12.2 °F 68% 30.16 in 10.0 mi NNW 13.8 mph 18.4 mph N/A   Clear
10:35 AM 21.2 °F 7.8 °F 12.2 °F 68% 30.16 in 10.0 mi NNW 15.0 mph - N/A   Clear
10:55 AM 21.2 °F 8.3 °F 12.2 °F 68% 30.17 in 10.0 mi NW 13.8 mph - N/A   Clear
11:15 AM 21.2 °F 8.9 °F 12.2 °F 68% 30.18 in 10.0 mi NW 12.7 mph - N/A   Clear
11:35 AM 21.2 °F 10.1 °F 12.2 °F 68% 30.18 in 10.0 mi NNW 10.4 mph - N/A   Clear
11:55 AM 21.2 °F 8.9 °F 12.2 °F 68% 30.18 in 10.0 mi NW 12.7 mph - N/A   Clear
11:57 AM 21.2 °F 9.5 °F 12.2 °F 68% 30.18 in 10.0 mi NW 11.5 mph - N/A   Clear
12:15 PM 21.2 °F 8.9 °F 12.2 °F 68% 30.18 in 10.0 mi WNW 12.7 mph - N/A   Clear
12:35 PM 21.2 °F 9.5 °F 12.2 °F 68% 30.18 in 10.0 mi WNW 11.5 mph - N/A   Clear
12:55 PM 21.2 °F 8.9 °F 12.2 °F 68% 30.18 in 10.0 mi West 12.7 mph - N/A   Clear
1:15 PM 21.2 °F 10.1 °F 12.2 °F 68% 30.17 in 10.0 mi WNW 10.4 mph - N/A   Clear
1:35 PM 23.0 °F 13.1 °F 14.0 °F 68% 30.16 in 10.0 mi WNW 9.2 mph - N/A   Clear
1:55 PM 23.0 °F 12.4 °F 12.2 °F 63% 30.16 in 10.0 mi WNW 10.4 mph - N/A   Clear
2:15 PM 21.2 °F 10.9 °F 12.2 °F 68% 30.16 in 10.0 mi WNW 9.2 mph - N/A   Clear
2:35 PM 23.0 °F 13.9 °F 12.2 °F 63% 30.16 in 10.0 mi WNW 8.1 mph - N/A   Clear
2:55 PM 23.0 °F 14.7 °F 12.2 °F 63% 30.16 in 10.0 mi West 6.9 mph - N/A   Clear
3:15 PM 21.2 °F 11.7 °F 12.2 °F 68% 30.16 in 10.0 mi West 8.1 mph - N/A   Clear
3:35 PM 21.2 °F 13.6 °F 12.2 °F 68% 30.16 in 10.0 mi WNW 5.8 mph - N/A   Clear
3:55 PM 21.2 °F 16.4 °F 12.2 °F 68% 30.16 in 10.0 mi WNW 3.5 mph - N/A   Clear
4:15 PM 21.2 °F 14.9 °F 12.2 °F 68% 30.16 in 10.0 mi West 4.6 mph - N/A   Clear
4:35 PM 19.4 °F - 12.2 °F 74% 30.16 in 10.0 mi Calm Calm - N/A   Clear
4:55 PM 19.4 °F - 12.2 °F 74% 30.16 in 10.0 mi Calm Calm - N/A   Clear
5:15 PM 19.4 °F - 14.0 °F 80% 30.16 in 10.0 mi Calm Calm - N/A   Clear
5:35 PM 19.4 °F - 14.0 °F 80% 30.15 in 10.0 mi Calm Calm - N/A   Clear
5:55 PM 19.4 °F - 12.2 °F 74% 30.14 in 10.0 mi Calm Calm - N/A   Scattered Clouds
6:15 PM 17.6 °F 10.7 °F 12.2 °F 79% 30.13 in 10.0 mi East 4.6 mph - N/A   Scattered Clouds
6:35 PM 17.6 °F 10.7 °F 12.2 °F 79% 30.13 in 10.0 mi SE 4.6 mph - N/A   Clear
6:55 PM 17.6 °F 10.7 °F 12.2 °F 79% 30.13 in 10.0 mi SE 4.6 mph - N/A   Scattered Clouds
7:15 PM 19.4 °F 14.3 °F 12.2 °F 74% 30.13 in 10.0 mi ESE 3.5 mph - N/A   Mostly Cloudy
7:35 PM 19.4 °F 11.5 °F 12.2 °F 74% 30.12 in 10.0 mi SE 5.8 mph - N/A   Overcast
7:55 PM 19.4 °F 11.5 °F 12.2 °F 74% 30.11 in 10.0 mi SE 5.8 mph - N/A   Overcast
8:15 PM 19.4 °F 10.4 °F 14.0 °F 80% 30.10 in 10.0 mi ESE 6.9 mph - N/A   Overcast
8:35 PM 19.4 °F 10.4 °F 14.0 °F 80% 30.10 in 10.0 mi ESE 6.9 mph - N/A   Overcast
8:55 PM 19.4 °F 9.5 °F 14.0 °F 80% 30.09 in 10.0 mi SE 8.1 mph - N/A   Overcast
9:15 PM 19.4 °F 8.6 °F 15.8 °F 86% 30.09 in 10.0 mi SE 9.2 mph - N/A   Overcast
9:35 PM 21.2 °F 10.9 °F 15.8 °F 80% 30.08 in 10.0 mi SE 9.2 mph - N/A   Overcast
10:15 PM 21.2 °F 10.1 °F 15.8 °F 80% 30.07 in 10.0 mi SE 10.4 mph - N/A   Overcast
10:35 PM 21.2 °F 10.9 °F 15.8 °F 80% 30.05 in 10.0 mi ESE 9.2 mph - N/A   Overcast
10:55 PM 21.2 °F 9.5 °F 17.6 °F 86% 30.04 in 10.0 mi SE 11.5 mph - N/A   Overcast
11:35 PM 23.0 °F 9.6 °F 17.6 °F 80% 30.01 in 10.0 mi SE 16.1 mph - N/A   Scattered Clouds
11:55 PM 23.0 °F 9.2 °F 17.6 °F 80% 29.99 in 10.0 mi SE 17.3 mph - N/A   Clear